Location: Newark
(43.6583°N, 1.6617°E)
Time: 08:36:27
(UTC+00:00)

Tiros 1 - Pass Details

Date: 25 August 2019
Orbit: 630 x 664 km, 48.4° (Epoch: 23 September)

Event Time Altitude Azimuth Distance (km) Brightness Sun altitude
Rises 00:32:39 0° 262° (W) 2,913 - -34.8°
Reaches altitude 10° 00:35:00 10° 267° (W) 2,008 - -34.7°
Maximum altitude 00:39:33 56° 346° (NNW) 751 - -34.5°
Exits shadow 00:43:33 13° 64° (ENE) 1,802 9.8 -34.3°
Drops below altitude 10° 00:44:08 10° 65° (ENE) 2,025 10.1 -34.3°
Sets 00:46:31 0° 70° (ENE) 2,940 11.0 -34.2°
